User: anonymous   Login
Location: Bílinka
(49.3579°N, 14.3767°E)
Time: 22:47:54
(UTC+00:00)
Language:

DMSP B5D1-3 - Orbit

View from above orbital plane
View from above orbital plane
View from above satellite
View from above satellite

Ground track
Ground track

The orbit data is extracted from the following two-line orbital elements,

1 10820U 78042A   23159.53294558  .00000494  00000-0  18485-3 0  9999
2 10820  98.4957 355.3842 0010410  47.1841 313.0218 14.35986155354351
Epoch (UTC): 08 June 2023 12:47:26
Eccentricity: 0.0010410
inclination: 98.4957°
perigee height: 764 km
apogee height: 779 km
right ascension of ascending node: 355.3842°
argument of perigee: 47.1841°
revolutions per day: 14.35986155
mean anomaly at epoch: 313.0218°
orbit number at epoch: 35435

The dashed part of the orbit path shows where the satellite is in the earth's shadow,  

DLR